Hourly Weather Danielka

Today, 17 April, Saturday

Time Temperature Precipitation Wind Pressure Humidity
00:00 +1°C° 0.1 mm 1 mps 700 mmHg 98%
01:00 0°C° 0.1 mm 0 mps 700 mmHg 98%
02:00 0°C° 0.2 mm 0 mps 700 mmHg 99%
03:00 0°C° 0.2 mm 0 mps 699 mmHg 99%
04:00 0°C° 0.2 mm 0 mps 699 mmHg 99%
05:00 0°C° 0.1 mm 0 mps 699 mmHg 99%
06:00 0°C° 0.1 mm 0 mps 700 mmHg 99%
07:00 0°C° 0.1 mm 0 mps 700 mmHg 99%
08:00 +1°C° 0 mm 0 mps 700 mmHg 98%
09:00 +1°C° 0 mm 0 mps 700 mmHg 97%
10:00 +1°C° 0 mm 0 mps 700 mmHg 97%
11:00 +2°C° 0 mm 0 mps 700 mmHg 96%
12:00 +2°C° 0 mm 0 mps 700 mmHg 95%
13:00 +3°C° 0 mm 1 mps 700 mmHg 95%
14:00 +3°C° 0 mm 1 mps 700 mmHg 95%
15:00 +3°C° 0 mm 1 mps 700 mmHg 95%
16:00 +3°C° 0 mm 1 mps 700 mmHg 95%
17:00 +3°C° 0 mm 1 mps 700 mmHg 96%
18:00 +2°C° 0 mm 1 mps 700 mmHg 98%
19:00 +2°C° 0 mm 1 mps 700 mmHg 99%
20:00 +2°C° 0 mm 1 mps 700 mmHg 99%
21:00 +2°C° 0 mm 1 mps 700 mmHg 99%
22:00 +2°C° 0 mm 1 mps 700 mmHg 99%
23:00 +1°C° 0 mm 0 mps 700 mmHg 99%

Tomorrow, 18 April, Sunday

Time Temperature Precipitation Wind Pressure Humidity
00:00 +1°C° 0 mm 0 mps 700 mmHg 99%
01:00 +1°C° 0 mm 0 mps 699 mmHg 99%
02:00 +2°C° 0 mm 1 mps 699 mmHg 99%
03:00 +2°C° 0 mm 1 mps 699 mmHg 99%
04:00 +2°C° 0 mm 1 mps 699 mmHg 99%
05:00 +2°C° 0 mm 1 mps 699 mmHg 98%
06:00 +2°C° 0 mm 1 mps 699 mmHg 96%
07:00 +2°C° 0 mm 1 mps 699 mmHg 95%
08:00 +3°C° 0 mm 1 mps 699 mmHg 93%
09:00 +3°C° 0 mm 1 mps 699 mmHg 91%
10:00 +4°C° 0 mm 1 mps 699 mmHg 90%
11:00 +4°C° 0 mm 1 mps 699 mmHg 89%
12:00 +5°C° 0 mm 1 mps 699 mmHg 88%
13:00 +5°C° 0 mm 1 mps 699 mmHg 88%
14:00 +5°C° 0 mm 1 mps 699 mmHg 88%
15:00 +5°C° 0 mm 2 mps 699 mmHg 88%
16:00 +5°C° 0 mm 2 mps 699 mmHg 88%
17:00 +5°C° 0 mm 1 mps 699 mmHg 91%
18:00 +4°C° 0 mm 1 mps 699 mmHg 94%
19:00 +3°C° 0 mm 1 mps 699 mmHg 97%
20:00 +3°C° 0 mm 1 mps 699 mmHg 97%
21:00 +3°C° 0 mm 1 mps 699 mmHg 97%
22:00 +3°C° 0 mm 1 mps 699 mmHg 97%
23:00 +3°C° 0 mm 1 mps 699 mmHg 97%

Day after tomorrow, 19 April, Monday

Time Temperature Precipitation Wind Pressure Humidity
00:00 +3°C° 0 mm 1 mps 698 mmHg 97%
01:00 +3°C° 0 mm 1 mps 698 mmHg 97%
02:00 +3°C° 0 mm 1 mps 698 mmHg 97%
03:00 +3°C° 0 mm 1 mps 698 mmHg 97%
04:00 +3°C° 0 mm 1 mps 698 mmHg 97%
05:00 +3°C° 0 mm 1 mps 698 mmHg 97%
06:00 +4°C° 0 mm 1 mps 698 mmHg 96%
07:00 +5°C° 0 mm 1 mps 698 mmHg 96%
08:00 +5°C° 0 mm 1 mps 697 mmHg 93%
09:00 +5°C° 0 mm 2 mps 697 mmHg 90%
10:00 +6°C° 0 mm 2 mps 697 mmHg 87%
11:00 +7°C° 0.2 mm 2 mps 697 mmHg 85%
12:00 +7°C° 0.2 mm 2 mps 697 mmHg 83%
13:00 +8°C° 0.2 mm 2 mps 697 mmHg 80%
14:00 +7°C° 0.3 mm 2 mps 697 mmHg 83%
15:00 +7°C° 0.3 mm 2 mps 696 mmHg 85%
16:00 +7°C° 0.3 mm 2 mps 696 mmHg 87%
17:00 +6°C° 0.1 mm 2 mps 696 mmHg 90%
18:00 +6°C° 0.1 mm 1 mps 696 mmHg 93%
19:00 +6°C° 0.1 mm 1 mps 696 mmHg 95%
20:00 +5°C° 0.1 mm 1 mps 696 mmHg 96%
21:00 +5°C° 0.1 mm 1 mps 696 mmHg 96%
22:00 +5°C° 0.1 mm 1 mps 696 mmHg 96%
23:00 +5°C° 0 mm 1 mps 696 mmHg 96%

20 April, Tuesday

Time Temperature Precipitation Wind Pressure Humidity
00:00 +4°C° 0 mm 1 mps 696 mmHg 96%
01:00 +4°C° 0 mm 1 mps 695 mmHg 95%
02:00 +4°C° 0 mm 1 mps 695 mmHg 95%
03:00 +4°C° 0 mm 1 mps 695 mmHg 95%
04:00 +4°C° 0 mm 1 mps 695 mmHg 95%
05:00 +5°C° 0 mm 1 mps 695 mmHg 95%
06:00 +5°C° 0 mm 1 mps 695 mmHg 94%
07:00 +5°C° 0 mm 1 mps 695 mmHg 93%
08:00 +6°C° 0.2 mm 1 mps 695 mmHg 88%
09:00 +6°C° 0.2 mm 2 mps 696 mmHg 83%
10:00 +7°C° 0.2 mm 2 mps 696 mmHg 78%
11:00 +7°C° 0.2 mm 2 mps 695 mmHg 76%
12:00 +8°C° 0.2 mm 2 mps 695 mmHg 74%
13:00 +8°C° 0.2 mm 2 mps 695 mmHg 72%
14:00 +9°C° 0.1 mm 1 mps 695 mmHg 73%
15:00 +9°C° 0.1 mm 1 mps 695 mmHg 73%
16:00 +9°C° 0.1 mm 1 mps 695 mmHg 74%
17:00 +7°C° 0 mm 1 mps 695 mmHg 78%
18:00 +6°C° 0 mm 1 mps 695 mmHg 83%
19:00 +5°C° 0 mm 1 mps 695 mmHg 87%
20:00 +4°C° 0 mm 1 mps 695 mmHg 88%
21:00 +3°C° 0 mm 0 mps 695 mmHg 90%
22:00 +2°C° 0 mm 0 mps 695 mmHg 91%
23:00 +2°C° 0 mm 0 mps 695 mmHg 92%

21 April, Wednesday

Time Temperature Precipitation Wind Pressure Humidity
00:00 +2°C° 0 mm 0 mps 695 mmHg 92%
01:00 +3°C° 0 mm 1 mps 694 mmHg 93%
02:00 +3°C° 0 mm 1 mps 694 mmHg 93%
03:00 +3°C° 0 mm 1 mps 694 mmHg 93%
04:00 +3°C° 0 mm 1 mps 694 mmHg 93%
05:00 +4°C° 0 mm 1 mps 694 mmHg 92%
06:00 +4°C° 0 mm 1 mps 695 mmHg 90%
07:00 +4°C° 0 mm 0 mps 695 mmHg 89%
08:00 +6°C° 0.1 mm 1 mps 695 mmHg 83%
09:00 +7°C° 0.1 mm 1 mps 695 mmHg 78%
10:00 +8°C° 0.1 mm 1 mps 695 mmHg 73%
11:00 +9°C° 0.2 mm 1 mps 695 mmHg 69%
12:00 +10°C° 0.2 mm 1 mps 695 mmHg 64%
13:00 +11°C° 0.2 mm 1 mps 695 mmHg 60%
14:00 +11°C° 0.2 mm 1 mps 695 mmHg 61%
15:00 +11°C° 0.2 mm 1 mps 695 mmHg 61%
16:00 +11°C° 0.2 mm 1 mps 695 mmHg 61%
17:00 +10°C° 0.2 mm 1 mps 695 mmHg 70%
18:00 +8°C° 0.2 mm 1 mps 695 mmHg 78%
19:00 +6°C° 0.2 mm 1 mps 695 mmHg 86%
20:00 +6°C° 0 mm 1 mps 695 mmHg 88%
21:00 +5°C° 0 mm 1 mps 696 mmHg 90%
22:00 +5°C° 0 mm 1 mps 696 mmHg 91%
23:00 +5°C° 0 mm 1 mps 696 mmHg 91%

22 April, Thursday

Time Temperature Precipitation Wind Pressure Humidity
00:00 +4°C° 0 mm 2 mps 696 mmHg 91%
01:00 +4°C° 0 mm 2 mps 696 mmHg 91%
02:00 +3°C° 0 mm 2 mps 696 mmHg 91%
03:00 +3°C° 0 mm 2 mps 696 mmHg 92%
04:00 +3°C° 0 mm 2 mps 696 mmHg 92%
05:00 +4°C° 0 mm 2 mps 696 mmHg 89%
06:00 +6°C° 0 mm 2 mps 696 mmHg 85%
07:00 +8°C° 0 mm 1 mps 696 mmHg 82%
08:00 +8°C° 0.1 mm 2 mps 697 mmHg 77%
09:00 +10°C° 0.1 mm 2 mps 697 mmHg 73%
10:00 +11°C° 0.1 mm 3 mps 697 mmHg 68%
11:00 +11°C° 0.1 mm 3 mps 697 mmHg 70%
12:00 +10°C° 0.1 mm 2 mps 697 mmHg 71%
13:00 +10°C° 0.1 mm 2 mps 697 mmHg 73%
14:00 +10°C° 0.1 mm 2 mps 697 mmHg 71%
15:00 +12°C° 0.1 mm 2 mps 697 mmHg 70%
16:00 +12°C° 0.1 mm 1 mps 697 mmHg 69%
17:00 +11°C° 0.2 mm 1 mps 697 mmHg 76%
18:00 +9°C° 0.2 mm 1 mps 697 mmHg 83%
19:00 +8°C° 0.2 mm 1 mps 697 mmHg 89%
20:00 +8°C° 0.5 mm 1 mps 697 mmHg 91%
21:00 +7°C° 0.5 mm 0 mps 697 mmHg 93%
22:00 +7°C° 0.5 mm 0 mps 697 mmHg 94%
23:00 +7°C° 0.5 mm 1 mps 697 mmHg 95%
Show more